Time,TemperatureF,DewpointF,PressureIn,WindDirection,WindDirectionDegrees,WindSpeedMPH,WindSpeedGustMPH,Humidity,HourlyPrecipIn,Conditions,Clouds,dailyrainin,SoftwareType,DateUTC
2013-03-19 00:00:00,27.8,22.7,29.77,West,274,3.0,22.0,81,0.00,,,0.00,VWS V14.01,2013-03-19 04:00:00,
2013-03-19 00:01:00,27.8,22.7,29.77,WNW,296,3.0,3.0,81,0.00,,,0.00,VWS V14.01,2013-03-19 04:01:00,
2013-03-19 00:06:00,27.6,22.5,29.77,WSW,256,3.0,20.0,81,0.00,,,0.00,VWS V14.01,2013-03-19 04:06:00,
2013-03-19 00:11:00,27.4,22.0,29.76,West,274,9.0,20.0,80,0.00,,,0.00,VWS V14.01,2013-03-19 04:11:00,
2013-03-19 00:16:00,27.3,22.0,29.77,SSW,207,5.0,20.0,80,0.00,,,0.00,VWS V14.01,2013-03-19 04:16:00,
2013-03-19 00:21:00,27.2,21.9,29.77,WSW,238,9.0,17.0,80,0.00,,,0.00,VWS V14.01,2013-03-19 04:21:00,
2013-03-19 00:26:00,27.1,21.8,29.77,West,266,6.0,17.0,80,0.00,,,0.00,VWS V14.01,2013-03-19 04:26:00,
2013-03-19 00:31:00,26.8,21.2,29.78,ENE,71,11.0,17.0,79,0.00,,,0.00,VWS V14.01,2013-03-19 04:31:00,
2013-03-19 00:36:00,26.6,20.4,29.78,SW,229,5.0,15.0,77,0.00,,,0.00,VWS V14.01,2013-03-19 04:36:00,
2013-03-19 00:41:00,26.4,19.9,29.78,WSW,250,8.0,19.0,76,0.00,,,0.00,VWS V14.01,2013-03-19 04:41:00,
2013-03-19 00:46:00,26.3,20.1,29.78,West,266,5.0,19.0,77,0.00,,,0.00,VWS V14.01,2013-03-19 04:46:00,
2013-03-19 00:51:00,26.3,20.4,29.78,South,189,3.0,19.0,78,0.00,,,0.00,VWS V14.01,2013-03-19 04:51:00,
2013-03-19 00:56:00,26.4,20.5,29.78,WNW,287,6.0,12.0,78,0.00,,,0.00,VWS V14.01,2013-03-19 04:56:00,
2013-03-19 01:01:00,26.3,20.4,29.77,NNW,340,6.0,14.0,78,0.00,,,0.00,VWS V14.01,2013-03-19 05:01:00,
2013-03-19 01:06:00,26.3,20.7,29.78,SW,225,7.0,14.0,79,0.00,,,0.00,VWS V14.01,2013-03-19 05:06:00,
2013-03-19 01:11:00,26.2,21.2,29.78,WSW,243,4.0,14.0,81,0.00,,,0.00,VWS V14.01,2013-03-19 05:11:00,
2013-03-19 01:16:00,26.1,21.1,29.78,WSW,257,3.0,14.0,81,0.00,,,0.00,VWS V14.01,2013-03-19 05:16:00,
2013-03-19 01:21:00,26.0,21.0,29.79,NW,305,13.0,17.0,81,0.00,,,0.00,VWS V14.01,2013-03-19 05:21:00,
2013-03-19 01:26:00,25.8,20.5,29.78,NW,324,12.0,18.0,80,0.00,,,0.00,VWS V14.01,2013-03-19 05:26:00,
2013-03-19 01:31:00,25.6,20.0,29.79,West,270,5.0,18.0,79,0.00,,,0.00,VWS V14.01,2013-03-19 05:31:00,
2013-03-19 01:36:00,25.4,19.5,29.79,West,278,3.0,17.0,78,0.00,,,0.00,VWS V14.01,2013-03-19 05:36:00,
2013-03-19 01:41:00,25.3,19.4,29.79,North,355,8.0,17.0,78,0.00,,,0.00,VWS V14.01,2013-03-19 05:41:00,
2013-03-19 01:46:00,25.1,18.6,29.79,West,273,5.0,17.0,76,0.00,,,0.00,VWS V14.01,2013-03-19 05:46:00,
2013-03-19 01:52:00,24.8,18.0,29.79,ENE,78,4.0,20.0,75,0.00,,,0.00,VWS V14.01,2013-03-19 05:52:00,
2013-03-19 01:56:00,24.7,17.9,29.79,WSW,241,7.0,20.0,75,0.00,,,0.00,VWS V14.01,2013-03-19 05:56:00,
2013-03-19 02:02:00,24.7,18.2,29.79,SW,216,4.0,18.0,76,0.00,,,0.00,VWS V14.01,2013-03-19 06:02:00,
2013-03-19 02:07:00,24.6,18.1,29.79,SW,224,4.0,14.0,76,0.00,,,0.00,VWS V14.01,2013-03-19 06:07:00,
2013-03-19 02:12:00,24.5,18.3,29.79,South,179,2.0,15.0,77,0.00,,,0.00,VWS V14.01,2013-03-19 06:12:00,
2013-03-19 02:17:00,24.3,17.8,29.79,WSW,247,4.0,15.0,76,0.00,,,0.00,VWS V14.01,2013-03-19 06:17:00,
2013-03-19 02:22:00,24.3,18.1,29.79,SW,236,6.0,13.0,77,0.00,,,0.00,VWS V14.01,2013-03-19 06:22:00,
2013-03-19 02:27:00,24.2,18.0,29.79,West,267,2.0,12.0,77,0.00,,,0.00,VWS V14.01,2013-03-19 06:27:00,
2013-03-19 02:32:00,24.2,18.3,29.79,West,265,1.0,11.0,78,0.00,,,0.00,VWS V14.01,2013-03-19 06:32:00,
2013-03-19 02:37:00,24.1,18.2,29.79,WSW,254,5.0,13.0,78,0.00,,,0.00,VWS V14.01,2013-03-19 06:37:00,
2013-03-19 02:42:00,23.9,17.8,29.80,WSW,249,4.0,16.0,77,0.00,,,0.00,VWS V14.01,2013-03-19 06:42:00,
2013-03-19 02:47:00,23.8,17.7,29.80,West,261,6.0,16.0,77,0.00,,,0.00,VWS V14.01,2013-03-19 06:47:00,
2013-03-19 02:51:00,23.7,17.6,29.80,South,188,7.0,15.0,77,0.00,,,0.00,VWS V14.01,2013-03-19 06:51:00,
2013-03-19 02:57:00,23.7,17.3,29.80,WNW,289,7.0,15.0,76,0.00,,,0.00,VWS V14.01,2013-03-19 06:57:00,
2013-03-19 03:02:00,23.7,17.6,29.79,West,261,4.0,13.0,77,0.00,,,0.00,VWS V14.01,2013-03-19 07:02:00,
2013-03-19 03:07:00,23.7,17.6,29.79,SW,233,6.0,13.0,77,0.00,,,0.00,VWS V14.01,2013-03-19 07:07:00,
2013-03-19 03:12:00,23.6,17.5,29.80,WSW,250,7.0,13.0,77,0.00,,,0.00,VWS V14.01,2013-03-19 07:12:00,
2013-03-19 03:17:00,23.4,17.6,29.80,West,260,4.0,13.0,78,0.00,,,0.00,VWS V14.01,2013-03-19 07:17:00,
2013-03-19 03:22:00,23.3,17.5,29.80,WSW,238,0.0,11.0,78,0.00,,,0.00,VWS V14.01,2013-03-19 07:22:00,
2013-03-19 03:27:00,23.4,17.6,29.80,SW,225,2.0,11.0,78,0.00,,,0.00,VWS V14.01,2013-03-19 07:27:00,
2013-03-19 03:32:00,23.4,17.3,29.80,SW,228,5.0,11.0,77,0.00,,,0.00,VWS V14.01,2013-03-19 07:32:00,
2013-03-19 03:37:00,23.4,17.3,29.80,WNW,285,1.0,9.0,77,0.00,,,0.00,VWS V14.01,2013-03-19 07:37:00,
2013-03-19 03:42:00,23.4,17.6,29.80,West,260,3.0,9.0,78,0.00,,,0.00,VWS V14.01,2013-03-19 07:42:00,
2013-03-19 03:47:00,23.3,17.5,29.80,SW,219,2.0,17.0,78,0.00,,,0.00,VWS V14.01,2013-03-19 07:47:00,
2013-03-19 03:52:00,23.3,17.5,29.80,SW,234,3.0,17.0,78,0.00,,,0.00,VWS V14.01,2013-03-19 07:52:00,
2013-03-19 03:57:00,23.3,16.9,29.81,WSW,243,9.0,17.0,76,0.00,,,0.00,VWS V14.01,2013-03-19 07:57:00,
2013-03-19 04:02:00,23.1,16.7,29.81,SW,217,3.0,12.0,76,0.00,,,0.00,VWS V14.01,2013-03-19 08:02:00,
2013-03-19 04:07:00,22.9,16.8,29.80,SW,226,1.0,13.0,77,0.00,,,0.00,VWS V14.01,2013-03-19 08:07:00,
2013-03-19 04:12:00,22.7,16.6,29.80,WSW,246,4.0,13.0,77,0.00,,,0.00,VWS V14.01,2013-03-19 08:12:00,
2013-03-19 04:17:00,22.5,16.4,29.80,WSW,257,7.0,13.0,77,0.00,,,0.00,VWS V14.01,2013-03-19 08:17:00,
2013-03-19 04:22:00,22.5,16.7,29.80,West,271,7.0,13.0,78,0.00,,,0.00,VWS V14.01,2013-03-19 08:22:00,
2013-03-19 04:27:00,22.5,16.4,29.80,SW,234,6.0,13.0,77,0.00,,,0.00,VWS V14.01,2013-03-19 08:27:00,
2013-03-19 04:32:00,22.5,16.4,29.80,SW,216,6.0,13.0,77,0.00,,,0.00,VWS V14.01,2013-03-19 08:32:00,
2013-03-19 04:37:00,22.6,16.5,29.80,WSW,248,10.0,13.0,77,0.00,,,0.00,VWS V14.01,2013-03-19 08:37:00,
2013-03-19 04:42:00,22.5,16.4,29.80,WSW,247,8.0,14.0,77,0.00,,,0.00,VWS V14.01,2013-03-19 08:42:00,
2013-03-19 04:47:00,22.5,16.4,29.80,WSW,256,0.0,14.0,77,0.00,,,0.00,VWS V14.01,2013-03-19 08:47:00,
2013-03-19 04:52:00,22.5,16.1,29.80,SW,221,9.0,14.0,76,0.00,,,0.00,VWS V14.01,2013-03-19 08:52:00,
2013-03-19 04:57:00,22.4,16.3,29.80,WSW,254,5.0,12.0,77,0.00,,,0.00,VWS V14.01,2013-03-19 08:57:00,
2013-03-19 05:02:00,22.4,16.6,29.80,West,261,6.0,12.0,78,0.00,,,0.00,VWS V14.01,2013-03-19 09:02:00,
2013-03-19 05:07:00,22.4,16.6,29.80,WSW,242,4.0,12.0,78,0.00,,,0.00,VWS V14.01,2013-03-19 09:07:00,
2013-03-19 05:12:00,22.4,16.6,29.80,SSW,203,5.0,10.0,78,0.00,,,0.00,VWS V14.01,2013-03-19 09:12:00,
2013-03-19 05:17:00,22.2,16.4,29.80,SW,236,4.0,11.0,78,0.00,,,0.00,VWS V14.01,2013-03-19 09:17:00,
2013-03-19 05:22:00,22.0,16.5,29.80,SW,229,6.0,11.0,79,0.00,,,0.00,VWS V14.01,2013-03-19 09:22:00,
2013-03-19 05:27:00,21.8,16.6,29.80,WSW,242,4.0,11.0,80,0.00,,,0.00,VWS V14.01,2013-03-19 09:27:00,
2013-03-19 05:32:00,21.8,16.3,29.81,SW,225,7.0,13.0,79,0.00,,,0.00,VWS V14.01,2013-03-19 09:32:00,
2013-03-19 05:37:00,22.0,16.5,29.81,WSW,250,7.0,13.0,79,0.00,,,0.00,VWS V14.01,2013-03-19 09:37:00,
2013-03-19 05:42:00,22.1,16.6,29.81,SW,214,5.0,12.0,79,0.00,,,0.00,VWS V14.01,2013-03-19 09:42:00,
2013-03-19 05:47:00,21.8,16.6,29.82,WSW,239,6.0,13.0,80,0.00,,,0.00,VWS V14.01,2013-03-19 09:47:00,
2013-03-19 05:52:00,21.6,16.7,29.82,SW,220,3.0,13.0,81,0.00,,,0.00,VWS V14.01,2013-03-19 09:52:00,
2013-03-19 05:57:00,21.3,17.0,29.82,SW,218,7.0,15.0,83,0.00,,,0.00,VWS V14.01,2013-03-19 09:57:00,
2013-03-19 06:02:00,21.2,16.9,29.82,SSW,209,7.0,15.0,83,0.00,,,0.00,VWS V14.01,2013-03-19 10:02:00,
2013-03-19 06:07:00,21.3,17.2,29.82,SW,235,1.0,15.0,84,0.00,,,0.00,VWS V14.01,2013-03-19 10:07:00,
2013-03-19 06:12:00,21.2,17.1,29.82,West,261,4.0,10.0,84,0.00,,,0.00,VWS V14.01,2013-03-19 10:12:00,
2013-03-19 06:17:00,21.3,17.0,29.82,SW,233,9.0,10.0,83,0.00,,,0.00,VWS V14.01,2013-03-19 10:17:00,
2013-03-19 06:22:00,21.3,16.7,29.83,West,261,4.0,10.0,82,0.00,,,0.00,VWS V14.01,2013-03-19 10:22:00,
2013-03-19 06:27:00,21.2,16.6,29.83,WSW,255,10.0,15.0,82,0.00,,,0.00,VWS V14.01,2013-03-19 10:27:00,
2013-03-19 06:32:00,21.0,16.1,29.83,West,277,4.0,15.0,81,0.00,,,0.00,VWS V14.01,2013-03-19 10:32:00,
2013-03-19 06:37:00,21.0,15.8,29.82,WNW,285,7.0,15.0,80,0.00,,,0.00,VWS V14.01,2013-03-19 10:37:00,
2013-03-19 06:42:00,21.0,15.8,29.83,NNW,328,4.0,15.0,80,0.00,,,0.00,VWS V14.01,2013-03-19 10:42:00,
2013-03-19 06:47:00,21.0,15.5,29.83,WSW,246,5.0,15.0,79,0.00,,,0.00,VWS V14.01,2013-03-19 10:47:00,
2013-03-19 06:52:00,21.0,14.9,29.83,SW,221,2.0,17.0,77,0.00,,,0.00,VWS V14.01,2013-03-19 10:52:00,
2013-03-19 06:57:00,21.0,15.2,29.83,WSW,255,4.0,17.0,78,0.00,,,0.00,VWS V14.01,2013-03-19 10:57:00,
2013-03-19 07:02:00,21.0,15.2,29.83,SSW,195,6.0,17.0,78,0.00,,,0.00,VWS V14.01,2013-03-19 11:02:00,
2013-03-19 07:07:00,21.1,15.3,29.83,WSW,248,6.0,13.0,78,0.00,,,0.00,VWS V14.01,2013-03-19 11:07:00,
2013-03-19 07:12:00,21.1,15.6,29.84,SSW,208,6.0,10.0,79,0.00,,,0.00,VWS V14.01,2013-03-19 11:12:00,
2013-03-19 07:17:00,21.1,15.6,29.84,WSW,239,5.0,9.0,79,0.00,,,0.00,VWS V14.01,2013-03-19 11:17:00,
2013-03-19 07:22:00,20.9,15.4,29.84,WSW,240,7.0,13.0,79,0.00,,,0.00,VWS V14.01,2013-03-19 11:22:00,
2013-03-19 07:27:00,20.9,15.4,29.84,SSW,195,5.0,13.0,79,0.00,,,0.00,VWS V14.01,2013-03-19 11:27:00,
2013-03-19 07:32:00,20.9,15.4,29.83,WSW,256,1.0,13.0,79,0.00,,,0.00,VWS V14.01,2013-03-19 11:32:00,
2013-03-19 07:37:00,20.7,15.2,29.84,WNW,303,5.0,14.0,79,0.00,,,0.00,VWS V14.01,2013-03-19 11:37:00,
2013-03-19 07:42:00,20.7,15.5,29.84,SW,229,5.0,14.0,80,0.00,,,0.00,VWS V14.01,2013-03-19 11:42:00,
2013-03-19 07:47:00,20.7,15.5,29.84,WSW,239,6.0,12.0,80,0.00,,,0.00,VWS V14.01,2013-03-19 11:47:00,
2013-03-19 07:52:00,20.7,15.5,29.84,WNW,288,6.0,16.0,80,0.00,,,0.00,VWS V14.01,2013-03-19 11:52:00,
2013-03-19 07:57:00,20.7,15.8,29.84,SW,228,7.0,16.0,81,0.00,,,0.00,VWS V14.01,2013-03-19 11:57:00,
2013-03-19 08:02:00,20.7,15.8,29.85,SW,221,8.0,12.0,81,0.00,,,0.00,VWS V14.01,2013-03-19 12:02:00,
2013-03-19 08:07:00,20.7,15.8,29.84,SW,235,7.0,13.0,81,0.00,,,0.00,VWS V14.01,2013-03-19 12:07:00,
2013-03-19 08:12:00,20.7,15.8,29.84,SW,229,8.0,13.0,81,0.00,,,0.00,VWS V14.01,2013-03-19 12:12:00,
2013-03-19 08:17:00,20.7,16.1,29.85,SW,217,1.0,13.0,82,0.00,,,0.00,VWS V14.01,2013-03-19 12:17:00,
2013-03-19 08:22:00,20.6,16.3,29.84,SW,226,3.0,10.0,83,0.00,,,0.00,VWS V14.01,2013-03-19 12:22:00,
2013-03-19 08:27:00,20.4,16.4,29.85,WSW,248,7.0,10.0,84,0.00,,,0.00,VWS V14.01,2013-03-19 12:27:00,
2013-03-19 08:32:00,20.1,16.0,29.84,SSW,207,4.0,10.0,84,0.00,,,0.00,VWS V14.01,2013-03-19 12:32:00,
2013-03-19 08:37:00,19.9,16.1,29.84,SW,234,4.0,13.0,85,0.00,,,0.00,VWS V14.01,2013-03-19 12:37:00,
2013-03-19 08:42:00,19.8,15.8,29.84,WSW,244,9.0,17.0,84,0.00,,,0.00,VWS V14.01,2013-03-19 12:42:00,
2013-03-19 08:47:00,19.8,15.8,29.84,WSW,253,5.0,17.0,84,0.00,,,0.00,VWS V14.01,2013-03-19 12:47:00,
2013-03-19 08:52:00,19.9,15.9,29.85,SW,225,9.0,15.0,84,0.00,,,0.00,VWS V14.01,2013-03-19 12:52:00,
2013-03-19 08:57:00,19.8,15.8,29.85,SW,221,5.0,15.0,84,0.00,,,0.00,VWS V14.01,2013-03-19 12:57:00,
2013-03-19 09:02:00,19.8,15.8,29.84,SSW,212,4.0,15.0,84,0.00,,,0.00,VWS V14.01,2013-03-19 13:02:00,
2013-03-19 09:07:00,19.8,15.8,29.85,SSW,213,7.0,13.0,84,0.00,,,0.00,VWS V14.01,2013-03-19 13:07:00,
2013-03-19 09:12:00,19.9,16.1,29.85,WSW,243,1.0,13.0,85,0.00,,,0.00,VWS V14.01,2013-03-19 13:12:00,
2013-03-19 09:17:00,19.8,16.0,29.85,West,261,5.0,13.0,85,0.00,,,0.00,VWS V14.01,2013-03-19 13:17:00,
2013-03-19 09:22:00,19.7,16.2,29.85,WSW,244,3.0,13.0,86,0.00,,,0.00,VWS V14.01,2013-03-19 13:22:00,
2013-03-19 09:27:00,19.6,16.1,29.85,WSW,258,4.0,12.0,86,0.00,,,0.00,VWS V14.01,2013-03-19 13:27:00,
2013-03-19 09:32:00,19.6,16.1,29.85,WSW,241,5.0,13.0,86,0.00,,,0.00,VWS V14.01,2013-03-19 13:32:00,
2013-03-19 09:37:00,19.7,16.5,29.85,WSW,254,5.0,13.0,87,0.00,,,0.00,VWS V14.01,2013-03-19 13:37:00,
2013-03-19 09:42:00,19.6,16.4,29.86,SSW,200,9.0,11.0,87,0.00,,,0.00,VWS V14.01,2013-03-19 13:42:00,
2013-03-19 09:47:00,19.7,16.5,29.85,SW,223,4.0,11.0,87,0.00,,,0.00,VWS V14.01,2013-03-19 13:47:00,
2013-03-19 09:52:00,19.8,16.6,29.85,SW,235,8.0,12.0,87,0.00,,,0.00,VWS V14.01,2013-03-19 13:52:00,
2013-03-19 09:57:00,19.8,16.6,29.85,WNW,282,2.0,12.0,87,0.00,,,0.00,VWS V14.01,2013-03-19 13:57:00,
2013-03-19 10:02:00,20.2,17.0,29.85,SW,226,6.0,12.0,87,0.00,,,0.00,VWS V14.01,2013-03-19 14:02:00,
2013-03-19 10:07:00,20.3,16.8,29.86,WSW,243,4.0,12.0,86,0.00,,,0.00,VWS V14.01,2013-03-19 14:07:00,
2013-03-19 10:12:00,20.3,16.5,29.86,WSW,242,4.0,14.0,85,0.00,,,0.00,VWS V14.01,2013-03-19 14:12:00,
2013-03-19 10:17:00,20.4,16.6,29.86,SW,222,7.0,17.0,85,0.00,,,0.00,VWS V14.01,2013-03-19 14:17:00,
2013-03-19 10:22:00,20.5,16.7,29.86,WSW,244,4.0,17.0,85,0.00,,,0.00,VWS V14.01,2013-03-19 14:22:00,
2013-03-19 10:27:00,20.6,16.8,29.87,West,279,12.0,13.0,85,0.00,,,0.00,VWS V14.01,2013-03-19 14:27:00,
2013-03-19 10:32:00,20.7,16.4,29.87,WSW,247,10.0,13.0,83,0.00,,,0.00,VWS V14.01,2013-03-19 14:32:00,
2013-03-19 10:37:00,20.8,15.9,29.87,WSW,245,5.0,13.0,81,0.00,,,0.00,VWS V14.01,2013-03-19 14:37:00,
2013-03-19 10:42:00,21.1,15.9,29.87,SW,228,1.0,13.0,80,0.00,,,0.00,VWS V14.01,2013-03-19 14:42:00,
2013-03-19 10:47:00,21.2,16.0,29.88,West,279,3.0,13.0,80,0.00,,,0.00,VWS V14.01,2013-03-19 14:47:00,
2013-03-19 10:52:00,21.2,16.0,29.88,WSW,250,3.0,14.0,80,0.00,,,0.00,VWS V14.01,2013-03-19 14:52:00,
2013-03-19 10:57:00,21.2,16.0,29.88,SW,229,4.0,14.0,80,0.00,,,0.00,VWS V14.01,2013-03-19 14:57:00,
2013-03-19 11:02:00,21.5,16.6,29.88,WNW,288,12.0,14.0,81,0.00,,,0.00,VWS V14.01,2013-03-19 15:02:00,
2013-03-19 11:07:00,21.7,16.5,29.88,WSW,258,10.0,14.0,80,0.00,,,0.00,VWS V14.01,2013-03-19 15:07:00,
2013-03-19 11:12:00,21.9,16.7,29.89,SSW,212,8.0,14.0,80,0.00,,,0.00,VWS V14.01,2013-03-19 15:12:00,
2013-03-19 11:17:00,21.8,16.0,29.88,West,267,5.0,13.0,78,0.00,,,0.00,VWS V14.01,2013-03-19 15:17:00,
2013-03-19 11:22:00,22.1,16.3,29.89,West,263,4.0,15.0,78,0.00,,,0.00,VWS V14.01,2013-03-19 15:22:00,
2013-03-19 11:27:00,22.3,16.2,29.89,West,273,11.0,23.0,77,0.00,,,0.00,VWS V14.01,2013-03-19 15:27:00,
2013-03-19 11:32:00,22.2,16.1,29.89,West,271,3.0,23.0,77,0.00,,,0.00,VWS V14.01,2013-03-19 15:32:00,
2013-03-19 11:37:00,22.4,16.3,29.89,WSW,253,4.0,23.0,77,0.00,,,0.00,VWS V14.01,2013-03-19 15:37:00,
2013-03-19 11:42:00,22.8,16.7,29.89,WSW,250,4.0,16.0,77,0.00,,,0.00,VWS V14.01,2013-03-19 15:42:00,
2013-03-19 11:47:00,23.0,16.6,29.89,North,360,6.0,17.0,76,0.00,,,0.00,VWS V14.01,2013-03-19 15:47:00,
2013-03-19 11:52:00,23.3,16.9,29.90,SSW,208,5.0,17.0,76,0.00,,,0.00,VWS V14.01,2013-03-19 15:52:00,
2013-03-19 11:57:00,23.8,17.4,29.89,WSW,258,6.0,21.0,76,0.00,,,0.00,VWS V14.01,2013-03-19 15:57:00,
2013-03-19 12:02:00,24.0,17.2,29.90,West,265,7.0,21.0,75,0.00,,,0.00,VWS V14.01,2013-03-19 16:02:00,
2013-03-19 12:07:00,24.7,18.2,29.90,NNW,333,10.0,22.0,76,0.00,,,0.00,VWS V14.01,2013-03-19 16:07:00,
2013-03-19 12:12:00,24.5,17.1,29.90,SSW,212,10.0,22.0,73,0.00,,,0.00,VWS V14.01,2013-03-19 16:12:00,
2013-03-19 12:17:00,24.3,17.2,29.90,West,277,24.0,24.0,74,0.00,,,0.00,VWS V14.01,2013-03-19 16:17:00,
2013-03-19 12:22:00,24.8,18.0,29.90,WSW,240,4.0,24.0,75,0.00,,,0.00,VWS V14.01,2013-03-19 16:22:00,
2013-03-19 12:27:00,24.9,17.8,29.91,NW,306,5.0,24.0,74,0.00,,,0.00,VWS V14.01,2013-03-19 16:27:00,
2013-03-19 12:32:00,25.1,17.7,29.91,SSW,209,8.0,18.0,73,0.00,,,0.00,VWS V14.01,2013-03-19 16:32:00,
2013-03-19 12:37:00,25.7,18.9,29.91,WNW,286,6.0,19.0,75,0.00,,,0.00,VWS V14.01,2013-03-19 16:37:00,
2013-03-19 12:42:00,25.7,17.9,29.92,West,261,7.0,19.0,72,0.00,,,0.00,VWS V14.01,2013-03-19 16:42:00,
2013-03-19 12:47:00,25.7,17.9,29.92,West,266,6.0,19.0,72,0.00,,,0.00,VWS V14.01,2013-03-19 16:47:00,
2013-03-19 12:52:00,26.2,18.7,29.92,NW,312,5.0,19.0,73,0.00,,,0.00,VWS V14.01,2013-03-19 16:52:00,
2013-03-19 12:57:00,27.2,19.1,29.92,West,262,10.0,19.0,71,0.00,,,0.00,VWS V14.01,2013-03-19 16:57:00,
2013-03-19 13:02:00,27.5,19.4,29.92,NW,315,10.0,14.0,71,0.00,,,0.00,VWS V14.01,2013-03-19 17:02:00,
2013-03-19 13:07:00,26.3,17.2,29.92,WSW,255,7.0,17.0,68,0.00,,,0.00,VWS V14.01,2013-03-19 17:07:00,
2013-03-19 13:12:00,27.2,18.4,29.92,West,281,9.0,17.0,69,0.00,,,0.00,VWS V14.01,2013-03-19 17:12:00,
2013-03-19 13:17:00,28.0,19.5,29.92,WSW,246,10.0,16.0,70,0.00,,,0.00,VWS V14.01,2013-03-19 17:17:00,
2013-03-19 13:22:00,27.3,17.5,29.92,South,189,14.0,19.0,66,0.00,,,0.00,VWS V14.01,2013-03-19 17:22:00,
2013-03-19 13:27:00,27.7,18.9,29.93,WSW,254,18.0,19.0,69,0.00,,,0.00,VWS V14.01,2013-03-19 17:27:00,
2013-03-19 13:32:00,27.7,18.2,29.93,WSW,250,8.0,18.0,67,0.00,,,0.00,VWS V14.01,2013-03-19 17:32:00,
2013-03-19 13:37:00,28.9,20.0,29.93,SW,219,9.0,18.0,69,0.00,,,0.00,VWS V14.01,2013-03-19 17:37:00,
2013-03-19 13:42:00,29.9,19.9,29.93,South,190,5.0,15.0,66,0.00,,,0.00,VWS V14.01,2013-03-19 17:42:00,
2013-03-19 13:47:00,29.5,18.8,29.93,WNW,292,6.0,15.0,64,0.00,,,0.00,VWS V14.01,2013-03-19 17:47:00,
2013-03-19 13:52:00,28.9,18.3,29.94,West,263,5.0,21.0,64,0.00,,,0.00,VWS V14.01,2013-03-19 17:52:00,
2013-03-19 13:57:00,29.8,19.8,29.94,NE,38,5.0,21.0,66,0.00,,,0.00,VWS V14.01,2013-03-19 17:57:00,
2013-03-19 14:02:00,30.2,19.5,29.95,West,273,6.0,17.0,64,0.00,,,0.00,VWS V14.01,2013-03-19 18:02:00,
2013-03-19 14:07:00,29.0,18.0,29.94,SW,226,11.0,18.0,63,0.00,,,0.00,VWS V14.01,2013-03-19 18:07:00,
2013-03-19 14:12:00,28.9,18.6,29.94,WSW,238,6.0,21.0,65,0.00,,,0.00,VWS V14.01,2013-03-19 18:12:00,
2013-03-19 14:17:00,29.2,18.5,29.94,WNW,286,12.0,21.0,64,0.00,,,0.00,VWS V14.01,2013-03-19 18:17:00,
2013-03-19 14:22:00,29.3,17.5,29.94,NW,311,7.0,19.0,61,0.00,,,0.00,VWS V14.01,2013-03-19 18:22:00,
2013-03-19 14:27:00,30.0,18.2,29.94,WSW,253,8.0,21.0,61,0.00,,,0.00,VWS V14.01,2013-03-19 18:27:00,
2013-03-19 14:32:00,30.3,18.9,29.94,WSW,244,5.0,24.0,62,0.00,,,0.00,VWS V14.01,2013-03-19 18:32:00,
2013-03-19 14:37:00,31.0,19.1,29.94,SSW,196,19.0,24.0,61,0.00,,,0.00,VWS V14.01,2013-03-19 18:37:00,
2013-03-19 14:42:00,31.0,19.1,29.94,SSW,194,6.0,24.0,61,0.00,,,0.00,VWS V14.01,2013-03-19 18:42:00,
2013-03-19 14:47:00,31.6,20.1,29.94,WSW,245,9.0,24.0,62,0.00,,,0.00,VWS V14.01,2013-03-19 18:47:00,
2013-03-19 14:52:00,31.5,19.2,29.94,NW,304,6.0,24.0,60,0.00,,,0.00,VWS V14.01,2013-03-19 18:52:00,
2013-03-19 14:57:00,31.1,18.1,29.94,South,184,19.0,23.0,58,0.00,,,0.00,VWS V14.01,2013-03-19 18:57:00,
2013-03-19 15:02:00,30.9,18.7,29.94,South,169,8.0,23.0,60,0.00,,,0.00,VWS V14.01,2013-03-19 19:02:00,
2013-03-19 15:07:00,31.5,18.8,29.95,WNW,299,9.0,23.0,59,0.00,,,0.00,VWS V14.01,2013-03-19 19:07:00,
2013-03-19 15:12:00,31.2,18.2,29.95,NW,315,4.0,18.0,58,0.00,,,0.00,VWS V14.01,2013-03-19 19:12:00,
2013-03-19 15:17:00,31.8,18.7,29.94,NW,321,5.0,20.0,58,0.00,,,0.00,VWS V14.01,2013-03-19 19:17:00,
2013-03-19 15:22:00,32.3,19.2,29.94,WSW,254,7.0,20.0,58,0.00,,,0.00,VWS V14.01,2013-03-19 19:22:00,
2013-03-19 15:27:00,32.4,19.3,29.95,West,265,9.0,20.0,58,0.00,,,0.00,VWS V14.01,2013-03-19 19:27:00,
2013-03-19 15:32:00,32.0,18.1,29.95,WSW,257,5.0,17.0,56,0.00,,,0.00,VWS V14.01,2013-03-19 19:32:00,
2013-03-19 15:37:00,32.2,18.7,29.95,West,280,5.0,17.0,57,0.00,,,0.00,VWS V14.01,2013-03-19 19:37:00,
2013-03-19 15:42:00,31.9,18.4,29.95,SSW,212,9.0,20.0,57,0.00,,,0.00,VWS V14.01,2013-03-19 19:42:00,
2013-03-19 15:47:00,32.4,18.5,29.96,West,274,11.0,20.0,56,0.00,,,0.00,VWS V14.01,2013-03-19 19:47:00,
2013-03-19 15:52:00,32.4,18.9,29.96,WSW,250,8.0,20.0,57,0.00,,,0.00,VWS V14.01,2013-03-19 19:52:00,
2013-03-19 15:57:00,32.6,19.5,29.96,WSW,248,6.0,18.0,58,0.00,,,0.00,VWS V14.01,2013-03-19 19:57:00,
2013-03-19 16:02:00,32.3,19.2,29.96,WSW,257,7.0,19.0,58,0.00,,,0.00,VWS V14.01,2013-03-19 20:02:00,
2013-03-19 16:07:00,32.5,19.0,29.96,WSW,253,4.0,19.0,57,0.00,,,0.00,VWS V14.01,2013-03-19 20:07:00,
2013-03-19 16:12:00,33.0,18.6,29.96,SW,236,5.0,19.0,55,0.00,,,0.00,VWS V14.01,2013-03-19 20:12:00,
2013-03-19 16:17:00,32.6,18.2,29.96,SW,236,11.0,19.0,55,0.00,,,0.00,VWS V14.01,2013-03-19 20:17:00,
2013-03-19 16:22:00,32.9,18.9,29.96,WSW,244,9.0,19.0,56,0.00,,,0.00,VWS V14.01,2013-03-19 20:22:00,
2013-03-19 16:27:00,33.1,19.5,29.97,WNW,290,10.0,17.0,57,0.00,,,0.00,VWS V14.01,2013-03-19 20:27:00,
2013-03-19 16:32:00,32.9,18.5,29.96,WSW,258,6.0,18.0,55,0.00,,,0.00,VWS V14.01,2013-03-19 20:32:00,
2013-03-19 16:37:00,33.3,19.3,29.96,WSW,240,5.0,18.0,56,0.00,,,0.00,VWS V14.01,2013-03-19 20:37:00,
2013-03-19 16:42:00,33.8,19.8,29.97,NW,305,4.0,18.0,56,0.00,,,0.00,VWS V14.01,2013-03-19 20:42:00,
2013-03-19 16:48:00,33.3,18.9,29.97,West,275,7.0,23.0,55,0.00,,,0.00,VWS V14.01,2013-03-19 20:48:00,
2013-03-19 16:53:00,33.4,19.8,29.97,WNW,284,8.0,23.0,57,0.00,,,0.00,VWS V14.01,2013-03-19 20:53:00,
2013-03-19 16:58:00,33.2,18.4,29.97,West,267,5.0,20.0,54,0.00,,,0.00,VWS V14.01,2013-03-19 20:58:00,
2013-03-19 17:03:00,33.6,18.7,29.97,WNW,284,6.0,17.0,54,0.00,,,0.00,VWS V14.01,2013-03-19 21:03:00,
2013-03-19 17:08:00,33.4,18.1,29.98,West,275,8.0,19.0,53,0.00,,,0.00,VWS V14.01,2013-03-19 21:08:00,
2013-03-19 17:12:00,33.8,19.8,29.97,South,186,3.0,19.0,56,0.00,,,0.00,VWS V14.01,2013-03-19 21:12:00,
2013-03-19 17:17:00,33.7,18.8,29.98,West,275,20.0,20.0,54,0.00,,,0.00,VWS V14.01,2013-03-19 21:17:00,
2013-03-19 17:22:00,33.2,18.4,29.98,WSW,254,9.0,20.0,54,0.00,,,0.00,VWS V14.01,2013-03-19 21:22:00,
2013-03-19 17:27:00,33.6,18.7,29.98,WSW,240,6.0,20.0,54,0.00,,,0.00,VWS V14.01,2013-03-19 21:27:00,
2013-03-19 17:32:00,33.4,18.1,29.98,WSW,255,6.0,19.0,53,0.00,,,0.00,VWS V14.01,2013-03-19 21:32:00,
2013-03-19 17:47:00,33.1,18.7,29.99,SW,225,9.0,17.0,55,0.00,,,0.00,VWS V14.01,2013-03-19 21:47:00,
2013-03-19 17:52:00,33.1,19.1,29.99,NW,308,10.0,20.0,56,0.00,,,0.00,VWS V14.01,2013-03-19 21:52:00,
2013-03-19 17:57:00,33.2,19.2,29.99,WNW,294,4.0,20.0,56,0.00,,,0.00,VWS V14.01,2013-03-19 21:57:00,
2013-03-19 18:02:00,33.0,17.3,29.99,NNE,29,10.0,16.0,52,0.00,,,0.00,VWS V14.01,2013-03-19 22:02:00,
2013-03-19 18:07:00,33.1,18.3,29.99,WNW,296,9.0,15.0,54,0.00,,,0.00,VWS V14.01,2013-03-19 22:07:00,
2013-03-19 18:12:00,32.9,17.2,29.99,West,268,8.0,18.0,52,0.00,,,0.00,VWS V14.01,2013-03-19 22:12:00,
2013-03-19 18:17:00,32.8,17.1,29.99,SW,221,3.0,18.0,52,0.00,,,0.00,VWS V14.01,2013-03-19 22:17:00,
2013-03-19 18:22:00,33.4,18.6,29.99,SW,219,5.0,16.0,54,0.00,,,0.00,VWS V14.01,2013-03-19 22:22:00,
2013-03-19 18:27:00,33.4,17.7,29.99,West,259,4.0,16.0,52,0.00,,,0.00,VWS V14.01,2013-03-19 22:27:00,
2013-03-19 18:32:00,33.2,17.9,29.99,West,273,11.0,15.0,53,0.00,,,0.00,VWS V14.01,2013-03-19 22:32:00,
2013-03-19 18:37:00,33.1,17.4,30.00,WSW,252,6.0,15.0,52,0.00,,,0.00,VWS V14.01,2013-03-19 22:37:00,
2013-03-19 18:42:00,33.0,17.8,30.00,West,279,5.0,15.0,53,0.00,,,0.00,VWS V14.01,2013-03-19 22:42:00,
2013-03-19 18:47:00,33.0,17.8,30.00,West,274,3.0,13.0,53,0.00,,,0.00,VWS V14.01,2013-03-19 22:47:00,
2013-03-19 18:52:00,33.0,18.2,30.00,WSW,249,7.0,13.0,54,0.00,,,0.00,VWS V14.01,2013-03-19 22:52:00,
2013-03-19 18:57:00,32.8,17.6,30.00,WSW,239,4.0,16.0,53,0.00,,,0.00,VWS V14.01,2013-03-19 22:57:00,
2013-03-19 19:02:00,32.6,16.9,30.00,West,279,10.0,16.0,52,0.00,,,0.00,VWS V14.01,2013-03-19 23:02:00,
2013-03-19 19:07:00,32.5,17.3,30.00,WNW,289,6.0,20.0,53,0.00,,,0.00,VWS V14.01,2013-03-19 23:07:00,
2013-03-19 19:12:00,32.3,17.5,30.00,NW,314,6.0,20.0,54,0.00,,,0.00,VWS V14.01,2013-03-19 23:12:00,
2013-03-19 19:17:00,32.2,17.9,30.00,WSW,238,15.0,15.0,55,0.00,,,0.00,VWS V14.01,2013-03-19 23:17:00,
2013-03-19 19:22:00,32.2,17.4,30.00,WSW,254,7.0,15.0,54,0.00,,,0.00,VWS V14.01,2013-03-19 23:22:00,
2013-03-19 19:27:00,32.1,17.3,30.01,WSW,254,6.0,15.0,54,0.00,,,0.00,VWS V14.01,2013-03-19 23:27:00,
2013-03-19 19:32:00,32.0,17.7,30.01,NNW,327,2.0,14.0,55,0.00,,,0.00,VWS V14.01,2013-03-19 23:32:00,
2013-03-19 19:37:00,32.0,17.7,30.01,SW,230,3.0,15.0,55,0.00,,,0.00,VWS V14.01,2013-03-19 23:37:00,
2013-03-19 19:42:00,31.9,17.6,30.01,WNW,290,5.0,15.0,55,0.00,,,0.00,VWS V14.01,2013-03-19 23:42:00,
2013-03-19 19:47:00,31.9,17.6,30.01,WSW,251,4.0,15.0,55,0.00,,,0.00,VWS V14.01,2013-03-19 23:47:00,
2013-03-19 19:52:00,31.8,17.5,30.01,West,259,3.0,13.0,55,0.00,,,0.00,VWS V14.01,2013-03-19 23:52:00,
2013-03-19 19:57:00,31.7,17.8,30.01,WNW,286,2.0,11.0,56,0.00,,,0.00,VWS V14.01,2013-03-19 23:57:00,
2013-03-19 20:02:00,31.6,18.1,30.01,WNW,300,5.0,9.0,57,0.00,,,0.00,VWS V14.01,2013-03-20 00:02:00,
2013-03-19 20:07:00,31.5,18.0,30.01,WNW,285,2.0,10.0,57,0.00,,,0.00,VWS V14.01,2013-03-20 00:07:00,
2013-03-19 20:12:00,31.4,17.9,30.01,WSW,242,7.0,10.0,57,0.00,,,0.00,VWS V14.01,2013-03-20 00:12:00,
2013-03-19 20:17:00,31.5,18.0,30.01,WSW,238,8.0,9.0,57,0.00,,,0.00,VWS V14.01,2013-03-20 00:17:00,
2013-03-19 20:22:00,31.6,17.7,30.02,WSW,240,3.0,9.0,56,0.00,,,0.00,VWS V14.01,2013-03-20 00:22:00,
2013-03-19 20:27:00,31.5,18.0,30.02,West,265,3.0,9.0,57,0.00,,,0.00,VWS V14.01,2013-03-20 00:27:00,
2013-03-19 20:32:00,31.4,17.9,30.02,WNW,296,6.0,9.0,57,0.00,,,0.00,VWS V14.01,2013-03-20 00:32:00,
2013-03-19 20:37:00,31.5,18.0,30.02,WSW,256,8.0,16.0,57,0.00,,,0.00,VWS V14.01,2013-03-20 00:37:00,
2013-03-19 20:42:00,31.5,18.0,30.02,WSW,244,4.0,16.0,57,0.00,,,0.00,VWS V14.01,2013-03-20 00:42:00,
2013-03-19 20:47:00,31.4,17.9,30.02,West,273,4.0,16.0,57,0.00,,,0.00,VWS V14.01,2013-03-20 00:47:00,
2013-03-19 20:52:00,31.5,18.0,30.02,SW,236,4.0,15.0,57,0.00,,,0.00,VWS V14.01,2013-03-20 00:52:00,
2013-03-19 20:57:00,31.5,18.0,30.03,SW,235,7.0,15.0,57,0.00,,,0.00,VWS V14.01,2013-03-20 00:57:00,
2013-03-19 21:02:00,31.5,18.4,30.03,WNW,286,6.0,15.0,58,0.00,,,0.00,VWS V14.01,2013-03-20 01:02:00,
2013-03-19 21:07:00,31.5,18.4,30.03,West,277,1.0,9.0,58,0.00,,,0.00,VWS V14.01,2013-03-20 01:07:00,
2013-03-19 21:12:00,31.4,18.7,30.03,WNW,284,4.0,10.0,59,0.00,,,0.00,VWS V14.01,2013-03-20 01:12:00,
2013-03-19 21:17:00,31.4,18.7,30.03,WSW,247,6.0,15.0,59,0.00,,,0.00,VWS V14.01,2013-03-20 01:17:00,
2013-03-19 21:22:00,31.5,18.8,30.03,SW,215,5.0,15.0,59,0.00,,,0.00,VWS V14.01,2013-03-20 01:22:00,
2013-03-19 21:27:00,31.5,18.8,30.03,NW,318,4.0,15.0,59,0.00,,,0.00,VWS V14.01,2013-03-20 01:27:00,
2013-03-19 21:32:00,31.4,19.1,30.03,North,360,5.0,13.0,60,0.00,,,0.00,VWS V14.01,2013-03-20 01:32:00,
2013-03-19 21:37:00,31.4,19.1,30.03,SW,224,0.0,13.0,60,0.00,,,0.00,VWS V14.01,2013-03-20 01:37:00,
2013-03-19 21:42:00,31.4,19.1,30.03,West,259,5.0,11.0,60,0.00,,,0.00,VWS V14.01,2013-03-20 01:42:00,
2013-03-19 21:47:00,31.4,19.5,30.03,West,273,5.0,12.0,61,0.00,,,0.00,VWS V14.01,2013-03-20 01:47:00,
2013-03-19 21:52:00,31.3,19.4,30.03,WNW,286,9.0,12.0,61,0.00,,,0.00,VWS V14.01,2013-03-20 01:52:00,
2013-03-19 21:57:00,31.2,19.3,30.04,WSW,245,5.0,13.0,61,0.00,,,0.00,VWS V14.01,2013-03-20 01:57:00,
2013-03-19 22:02:00,31.2,19.3,30.03,WSW,252,6.0,15.0,61,0.00,,,0.00,VWS V14.01,2013-03-20 02:02:00,
2013-03-19 22:07:00,31.2,19.3,30.04,WSW,248,4.0,15.0,61,0.00,,,0.00,VWS V14.01,2013-03-20 02:07:00,
2013-03-19 22:12:00,31.1,19.2,30.04,WNW,287,3.0,15.0,61,0.00,,,0.00,VWS V14.01,2013-03-20 02:12:00,
2013-03-19 22:17:00,30.9,19.0,30.04,West,268,4.0,11.0,61,0.00,,,0.00,VWS V14.01,2013-03-20 02:17:00,
2013-03-19 22:22:00,30.6,19.1,30.04,NW,311,4.0,11.0,62,0.00,,,0.00,VWS V14.01,2013-03-20 02:22:00,
2013-03-19 22:27:00,30.5,19.0,30.04,SSW,207,5.0,12.0,62,0.00,,,0.00,VWS V14.01,2013-03-20 02:27:00,
2013-03-19 22:32:00,30.3,19.2,30.04,NNW,345,3.0,12.0,63,0.00,,,0.00,VWS V14.01,2013-03-20 02:32:00,
2013-03-19 22:37:00,30.1,19.4,30.05,WNW,288,6.0,11.0,64,0.00,,,0.00,VWS V14.01,2013-03-20 02:37:00,
2013-03-19 22:42:00,30.1,19.8,30.05,NNW,345,7.0,11.0,65,0.00,,,0.00,VWS V14.01,2013-03-20 02:42:00,
2013-03-19 22:47:00,30.0,19.7,30.05,NNW,341,5.0,11.0,65,0.00,,,0.00,VWS V14.01,2013-03-20 02:47:00,
2013-03-19 22:52:00,30.0,20.0,30.05,WSW,256,4.0,10.0,66,0.00,,,0.00,VWS V14.01,2013-03-20 02:52:00,
2013-03-19 22:57:00,29.9,19.9,30.05,WSW,241,6.0,15.0,66,0.00,,,0.00,VWS V14.01,2013-03-20 02:57:00,
2013-03-19 23:02:00,29.9,19.6,30.05,WNW,294,4.0,15.0,65,0.00,,,0.00,VWS V14.01,2013-03-20 03:02:00,
2013-03-19 23:07:00,29.9,19.9,30.05,WSW,242,3.0,15.0,66,0.00,,,0.00,VWS V14.01,2013-03-20 03:07:00,
2013-03-19 23:12:00,29.7,19.4,30.05,WSW,239,3.0,13.0,65,0.00,,,0.00,VWS V14.01,2013-03-20 03:12:00,
2013-03-19 23:17:00,29.6,19.6,30.05,WSW,255,0.0,12.0,66,0.00,,,0.00,VWS V14.01,2013-03-20 03:17:00,
2013-03-19 23:22:00,29.5,19.6,30.05,WSW,246,7.0,16.0,66,0.00,,,0.00,VWS V14.01,2013-03-20 03:22:00,
2013-03-19 23:27:00,29.5,19.6,30.06,NW,313,2.0,16.0,66,0.00,,,0.00,VWS V14.01,2013-03-20 03:27:00,
2013-03-19 23:32:00,29.4,19.1,30.06,WSW,252,1.0,16.0,65,0.00,,,0.00,VWS V14.01,2013-03-20 03:32:00,
2013-03-19 23:37:00,29.3,19.0,30.05,NW,316,5.0,13.0,65,0.00,,,0.00,VWS V14.01,2013-03-20 03:37:00,
2013-03-19 23:42:00,29.3,18.6,30.05,NW,323,2.0,13.0,64,0.00,,,0.00,VWS V14.01,2013-03-20 03:42:00,
2013-03-19 23:47:00,29.3,19.0,30.05,West,276,3.0,12.0,65,0.00,,,0.00,VWS V14.01,2013-03-20 03:47:00,
2013-03-19 23:52:00,29.2,18.9,30.05,WSW,249,1.0,8.0,65,0.00,,,0.00,VWS V14.01,2013-03-20 03:52:00,
2013-03-19 23:57:00,29.2,18.5,30.06,SSW,194,4.0,13.0,64,0.00,,,0.00,VWS V14.01,2013-03-20 03:57:00,